Fort Indiantown Gap, PA

11:21 AM EST on December 13, 2019 (GMT -0500)
Muir Army Air Field

Weather History for KMUI - October, 2019

Change the Weather History Date:

Wednesday, October 23, 2019

  Actual Average Record
Temperature  
Mean Temperature 52 °F -  
Max Temperature 64 °F 58 °F 73 °F (2007)
Min Temperature 41 °F 42 °F 30 °F (2010)
Degree Days  
Heating Degree Days 12    
Growing Degree Days 2 (Base 50)    
Moisture  
Dew Point 43 °F    
Average Humidity 76    
Maximum Humidity 100    
Minimum Humidity 28    
Precipitation  
Precipitation 0.00 in - - ()
Sea Level Pressure  
Sea Level Pressure 29.97 in    
Wind  
Wind Speed 5 mph (WSW)    
Max Wind Speed 17 mph    
Max Gust Speed 25 mph    
Visibility 6 miles    
Events Fog    
Averages and records for this station are not official NWS values.
T = Trace of Precipitation, MM = Missing Value Source: NWS Daily Summary

Daily Weather History Graph

Daily Weather History Graph

Search for Another Location

Airport or City:

Astronomy

Oct. 23, 2019 Rise Set
Actual Time 7:25 AM EDT 6:14 PM EDT
Civil Twilight 6:57 AM EDT 6:42 PM EDT
Nautical Twilight 6:25 AM EDT 7:14 PM EDT
Astronomical Twilight 5:54 AM EDT 7:46 PM EDT
Moon 1:40 AM EDT (10/23) 4:05 PM EDT (10/23)
Length of Visible Light 11h 44m
Length of Day
10h 49m
Waning Crescent, 27% of the Moon is Illuminated
Oct 23
Waning Crescent
Oct 27
New
Nov 4
First Quarter
Nov 12
Full
Nov 19
Last Quarter

Hourly Weather History & Observations

Time (EDT) Temp. Dew Point Humidity Pressure Visibility Wind Dir Wind Speed Gust Speed Precip Events Conditions
12:56 AM 52.2 °F 51.1 °F 96% 29.85 in 7.0 mi WSW 3.5 mph - N/A   Clear
1:04 AM 51.8 °F 50.0 °F 94% 29.85 in 0.6 mi SW 4.6 mph - N/A   Clear
1:08 AM 51.8 °F 50.0 °F 94% 29.85 in 0.5 mi SW 4.6 mph - N/A Fog Fog
1:16 AM 51.8 °F 50.0 °F 94% 29.85 in 0.2 mi SW 4.6 mph - N/A Fog Fog
1:24 AM 50.0 °F 50.0 °F 100% 29.85 in 0.1 mi WSW 4.6 mph - N/A Fog Fog
1:40 AM 50.0 °F 50.0 °F 100% 29.85 in 0.2 mi SW 5.8 mph - N/A Fog Fog
1:56 AM 50.0 °F 49.5 °F 98% 29.85 in 0.2 mi SW 3.5 mph - N/A Fog Fog
2:04 AM 50.0 °F 50.0 °F 100% 29.85 in 0.1 mi SW 3.5 mph - N/A Fog Fog
2:36 AM 48.2 °F 48.2 °F 100% 29.86 in 0.2 mi Calm Calm - N/A Fog Fog
2:56 AM 48.0 °F 47.7 °F 99% 29.86 in 0.2 mi Calm Calm - N/A Fog Fog
3:44 AM 48.2 °F 48.2 °F 100% 29.87 in 0.2 mi South 3.5 mph - N/A Fog Fog
3:52 AM 48.2 °F 48.2 °F 100% 29.87 in 1.2 mi SW 3.5 mph - N/A   Mist
3:56 AM 48.4 °F 48.0 °F 99% 29.87 in 1.4 mi WSW 5.8 mph - N/A   Mist
4:04 AM 50.0 °F 50.0 °F 100% 29.87 in 6.0 mi West 9.2 mph - N/A   Clear
4:56 AM 47.8 °F 47.5 °F 99% 29.89 in 10.0 mi Calm Calm - N/A   Clear
5:56 AM 47.1 °F 46.9 °F 99% 29.92 in 5.0 mi Calm Calm - N/A   Clear
6:28 AM 44.6 °F 44.6 °F 100% 29.94 in 2.8 mi Calm Calm - N/A   Clear
6:36 AM 46.4 °F 46.4 °F 100% 29.94 in 1.8 mi Calm Calm - N/A   Clear
6:44 AM 46.4 °F 46.4 °F 100% 29.94 in 7.0 mi Calm Calm - N/A   Clear
6:56 AM 47.7 °F 47.3 °F 99% 29.95 in 10.0 mi Calm Calm - N/A   Clear
7:56 AM 47.8 °F 47.5 °F 99% 29.98 in 10.0 mi West 4.6 mph - N/A   Clear
8:56 AM 51.8 °F 51.4 °F 99% 30.00 in 10.0 mi SW 4.6 mph - N/A   Clear
9:56 AM 55.9 °F 45.5 °F 68% 30.01 in 10.0 mi WSW 4.6 mph - N/A   Clear
10:56 AM 58.5 °F 41.9 °F 54% 30.02 in 10.0 mi West 5.8 mph - N/A   Partly Cloudy
11:56 AM 59.2 °F 39.6 °F 48% 30.04 in 10.0 mi West 12.7 mph 24.2 mph N/A   Scattered Clouds
12:56 PM 61.5 °F 37.0 °F 40% 30.03 in 10.0 mi WSW 17.3 mph 25.3 mph N/A   Partly Cloudy
1:25 PM 62.6 °F 37.4 °F 39% 30.02 in 10.0 mi West 16.1 mph 20.7 mph N/A   Partly Cloudy
1:46 PM 62.6 °F 35.6 °F 37% 30.02 in 10.0 mi West 12.7 mph 19.6 mph N/A   Partly Cloudy
1:56 PM 62.4 °F 35.8 °F 37% 30.02 in 10.0 mi WNW 8.1 mph 23.0 mph N/A   Partly Cloudy
2:56 PM 63.7 °F 34.7 °F 34% 30.02 in 10.0 mi WSW 15.0 mph 23.0 mph N/A   Partly Cloudy
3:56 PM 63.7 °F 31.6 °F 30% 30.04 in 10.0 mi WNW 9.2 mph - N/A   Partly Cloudy
4:56 PM 63.1 °F 29.5 °F 28% 30.05 in 10.0 mi WSW 15.0 mph 21.9 mph N/A   Clear
5:56 PM 61.0 °F 30.2 °F 31% 30.08 in 10.0 mi West 8.1 mph - N/A   Clear
6:56 PM 57.9 °F 29.7 °F 34% 30.12 in 10.0 mi West 5.8 mph - N/A   Clear
7:56 PM 56.1 °F 30.2 °F 37% 30.17 in 10.0 mi West 3.5 mph - N/A   Clear
9:56 PM 47.7 °F 34.9 °F 61% 30.20 in 10.0 mi Calm Calm - N/A   Clear
10:56 PM 42.1 °F 36.3 °F 80% 30.22 in 10.0 mi Calm Calm - N/A   Clear
11:56 PM 41.2 °F 35.4 °F 80% 30.22 in 10.0 mi Calm Calm - N/A   Clear